EDT,Max TemperatureF,Mean TemperatureF,Min TemperatureF,Max Dew PointF,MeanDew PointF,Min DewpointF,Max Humidity, Mean Humidity, Min Humidity, Max Sea Level PressureIn, Mean Sea Level PressureIn, Min Sea Level PressureIn, Max VisibilityMiles, Mean VisibilityMiles, Min VisibilityMiles, Max Wind SpeedMPH, Mean Wind SpeedMPH, Max Gust SpeedMPH,PrecipitationIn, CloudCover, Events, WindDirDegrees
2012-10-1,88,81,75,78,75,72,96,86,69,29.89,29.83,29.78,10,9,2,14,7,25,0.53,5,Rain,193
2012-10-2,88,81,75,77,74,72,100,88,65,30.08,29.95,29.88,10,8,1,16,4,26,1.65,5,Rain,194
2012-10-3,90,82,75,79,76,74,100,82,63,30.17,30.09,30.06,10,10,10,14,5,17,0.00,2,,105
2012-10-4,90,83,77,77,75,70,96,78,61,30.15,30.11,30.06,10,10,4,14,8,28,0.19,2,Rain,96
2012-10-5,89,84,78,76,75,72,90,77,57,30.09,30.01,29.94,10,10,10,13,6,,0.00,1,,84
2012-10-6,88,81,75,76,74,72,96,80,65,29.97,29.92,29.87,10,10,10,12,4,,0.02,2,Rain,84
2012-10-7,88,81,75,76,74,70,96,86,67,29.98,29.93,29.88,10,10,10,13,5,,0.17,3,Rain-Thunderstorm,43
2012-10-8,89,82,75,78,75,72,100,85,59,30.04,29.96,29.92,10,9,2,10,3,,0.20,2,Rain,82
2012-10-9,91,82,75,77,75,72,100,83,57,30.04,29.99,29.96,10,10,5,10,3,16,0.01,2,Rain-Thunderstorm,58
2012-10-10,89,82,75,76,74,70,100,84,61,30.06,30.03,29.99,10,8,1,21,4,32,0.68,3,Rain,56
2012-10-11,87,78,71,72,68,64,93,70,49,30.12,30.07,30.04,10,10,10,17,7,29,0.00,1,,28
2012-10-12,87,78,71,69,65,61,88,66,44,30.11,30.07,30.04,10,10,10,20,9,29,0.00,2,,20
2012-10-13,86,78,71,73,68,65,94,74,49,30.09,30.06,30.01,10,10,6,25,11,32,0.09,4,Rain,39
2012-10-14,87,82,77,77,73,68,90,77,65,30.02,29.97,29.94,10,10,7,28,13,33,0.08,5,Rain,62
2012-10-15,89,81,73,76,73,71,100,80,57,29.93,29.87,29.79,10,10,9,13,6,,0.07,3,Rain,67
2012-10-16,89,80,73,73,72,69,93,79,55,29.86,29.82,29.78,10,10,10,12,6,,0.00,2,,34
2012-10-17,87,80,73,75,72,70,94,81,59,29.89,29.86,29.82,10,10,8,13,5,16,0.05,4,Rain,133
2012-10-18,90,80,73,75,73,71,96,80,63,29.90,29.86,29.82,10,10,10,9,3,,0.00,3,,177
2012-10-19,90,80,75,76,73,70,100,81,65,29.91,29.87,29.82,10,10,9,14,2,,0.00,4,Rain-Thunderstorm,223
2012-10-20,89,80,72,77,72,66,97,78,46,29.94,29.90,29.84,10,10,5,12,4,20,0.00,2,,4
2012-10-21,87,77,70,72,66,61,91,68,51,30.00,29.95,29.90,10,10,10,15,8,,0.00,2,,39
2012-10-22,86,76,68,68,64,62,87,65,46,30.01,29.97,29.94,10,10,10,21,9,30,0.00,2,,50
2012-10-23,87,80,73,71,67,63,87,68,49,29.98,29.94,29.90,10,10,10,21,11,29,0.04,2,Rain,64
2012-10-24,87,80,73,73,71,66,94,79,53,29.93,29.88,29.82,10,10,10,25,10,34,0.35,4,Rain,60
2012-10-25,81,76,71,74,70,62,96,86,68,29.81,29.72,29.65,10,9,2,31,13,45,0.97,6,Rain,37
2012-10-26,80,75,71,72,69,66,94,84,71,29.62,29.57,29.52,10,9,2,30,17,44,0.33,6,Rain,332
2012-10-27,84,76,69,66,63,60,81,67,44,29.72,29.61,29.55,10,10,10,28,18,36,0.00,1,,298
2012-10-28,82,73,64,69,62,58,97,72,47,29.80,29.75,29.71,10,10,8,23,12,34,0.00,2,,290
2012-10-29,75,68,57,59,52,47,81,61,41,29.89,29.83,29.78,10,10,10,18,12,26,0.00,1,,305
2012-10-30,73,64,55,54,51,47,89,67,44,30.03,29.93,29.86,10,10,10,21,7,28,0.00,1,,302
2012-10-31,77,65,55,58,55,52,90,72,48,30.08,30.04,29.99,10,10,10,12,2,,0.00,0,,293